パンスターズ彗星

C/2021 P2 ( PanSTARRS )

English version
Home page
Updated on September 11, 2022

---------------------------------------------------------------------

・ プロフィール

発見日 2021年8月7日
発見光度 21.5等
発見者 Pan-STARRS 1 telescope (Haleakala)

・ 軌道要素

Epoch 2022 Aug. 9.0 TT = JDT 2459800.5
T 2023 Jan. 22.39215 TT                                 Rudenko
q   5.0694014            (2000.0)            P               Q
z  +0.0003248      Peri.   76.64515     +0.64339727     -0.71820672
 +/-0.0000007      Node    32.07023     -0.73613758     -0.67544411
e   0.9983535      Incl.  150.06109     +0.21009859     -0.16719555
From 203 observations 2021 June 19-2022 Sept. 5, mean residual 0".5.

・ 光度変化

        m1 = 8.5 + 5 logΔ + 10.0 log r

---------------------------------------------------------------------

軌道要素はM.P.E.C. 2022-R139に掲載されたものです。
光度グラフはComet for Windowsで作成したものです。

---------------------------------------------------------------------

Copyright(C) Seiichi Yoshida (comet@aerith.net). All rights reserved.